Find Starlink 31540

NORAD ID: 59542 Int'l Des: 2024-074 Owner: SPXS Country: US Constellation: starlink operational
LEOCIRCULAR

現在のビュー

3D地球を読み込み中...

About Starlink 31540

Starlink 31540 (NORAD 59542) is a starlink constellation satellite (v2 mini) launched Apr 18, 2024 by SPXS of US. It operates in LEO, CIRCULAR orbit with a mass of 730.00 kg.

次回通過

Passes for default location (London). Set your location on the main map for personalized predictions.

高度履歴

Loading altitude history...

軌道要素

1 59542U 24074J 26261.49394152 .00001479 00000-0 63275-4 0 9994
2 59542 43.0017 334.4580 0001127 282.3169 77.7557 15.27578460135508
Epoch: Sep 18, 2026 • Age: 53 hours

現在のステータス

高度 492.5 km
遠地点 / 近地点 N/A
速度 7.62 km/s
衛星直下点 -34.53°S, 60.37°W
打ち上げ日 Apr 18, 2024
運用期間 2.4 years
タイプ internet

技術仕様

分類 Payload
質量 730.00 kg
乾燥質量 700.00 kg
長さ 0.30 m
スパン 29.00 m
形状 ? Box + pan
製造者 SPXS
バスタイプ Starlink V2M
フェーズステータス In Orbit
所有者/国 SPXS/US

Most Searched